When you browse on this site, cookies collect data to enhance your experience and personalize the content and advertising you see.
Visit our Privacy Policy to learn more. By continuing to use the site, you agree to this use of cookies and data.
  • In Belgien
  • Länderverzeichnis
  • Für 7 Tage
  • Wassertemperatur
  • Satellitenkarten
  • Wetterkarte
  • Widgets
  • user-avatar
    Anmelden

    Stündliche Wetter Sewan

    Heute, 23 März, Samstag

    Zeit Temperatur Niederschläge Wind Luftdruck Luftfeuchtigkeit
    00:00 0°C° 0 mm 1 m/S 640 mmHg 59%
    01:00 0°C° 0 mm 1 m/S 640 mmHg 60%
    02:00 0°C° 0 mm 1 m/S 640 mmHg 61%
    03:00 0°C° 0 mm 1 m/S 640 mmHg 62%
    04:00 -1°C° 0 mm 1 m/S 640 mmHg 64%
    05:00 -1°C° 0 mm 1 m/S 639 mmHg 66%
    06:00 -1°C° 0 mm 1 m/S 639 mmHg 68%
    07:00 -2°C° 0 mm 2 m/S 639 mmHg 64%
    08:00 +1°C° 0 mm 2 m/S 639 mmHg 60%
    09:00 +1°C° 0 mm 3 m/S 639 mmHg 57%
    10:00 +2°C° 0 mm 3 m/S 639 mmHg 55%
    11:00 +3°C° 0 mm 3 m/S 638 mmHg 53%
    12:00 +4°C° 0 mm 3 m/S 638 mmHg 52%
    13:00 +4°C° 0.1 mm 3 m/S 638 mmHg 52%
    14:00 +4°C° 0.1 mm 3 m/S 637 mmHg 52%
    15:00 +4°C° 0.1 mm 3 m/S 637 mmHg 52%
    16:00 +4°C° 0.1 mm 3 m/S 636 mmHg 55%
    17:00 +4°C° 0.1 mm 2 m/S 636 mmHg 57%
    18:00 +4°C° 0.1 mm 2 m/S 636 mmHg 60%
    19:00 +3°C° 0.1 mm 2 m/S 636 mmHg 61%
    20:00 +3°C° 0.1 mm 2 m/S 636 mmHg 61%
    21:00 +2°C° 0.1 mm 2 m/S 636 mmHg 62%
    22:00 +2°C° 0.1 mm 2 m/S 636 mmHg 62%
    23:00 +2°C° 0.1 mm 2 m/S 636 mmHg 63%

    Morgen, 24 März, Sonntag

    Zeit Temperatur Niederschläge Wind Luftdruck Luftfeuchtigkeit
    00:00 +2°C° 0.1 mm 2 m/S 635 mmHg 63%
    01:00 +2°C° 0.2 mm 2 m/S 635 mmHg 66%
    02:00 +2°C° 0.2 mm 2 m/S 635 mmHg 69%
    03:00 +3°C° 0.2 mm 1 m/S 634 mmHg 72%
    04:00 +2°C° 0.3 mm 2 m/S 634 mmHg 73%
    05:00 +2°C° 0.3 mm 2 m/S 634 mmHg 73%
    06:00 +2°C° 0.3 mm 2 m/S 634 mmHg 74%
    07:00 +3°C° 0.2 mm 2 m/S 634 mmHg 71%
    08:00 +3°C° 0.2 mm 3 m/S 634 mmHg 69%
    09:00 +4°C° 0.2 mm 3 m/S 634 mmHg 66%
    10:00 +5°C° 0.3 mm 3 m/S 634 mmHg 65%
    11:00 +5°C° 0.3 mm 3 m/S 634 mmHg 63%
    12:00 +7°C° 0.3 mm 3 m/S 634 mmHg 62%
    13:00 +7°C° 0.5 mm 3 m/S 633 mmHg 63%
    14:00 +7°C° 0.5 mm 2 m/S 633 mmHg 64%
    15:00 +8°C° 0.5 mm 2 m/S 633 mmHg 65%
    16:00 +7°C° 1.1 mm 2 m/S 633 mmHg 69%
    17:00 +6°C° 1.1 mm 2 m/S 633 mmHg 72%
    18:00 +5°C° 1.1 mm 2 m/S 633 mmHg 76%
    19:00 +3°C° 1 mm 3 m/S 634 mmHg 76%
    20:00 +2°C° 1 mm 3 m/S 634 mmHg 76%
    21:00 +1°C° 1 mm 4 m/S 634 mmHg 76%
    22:00 +1°C° 0.3 mm 3 m/S 634 mmHg 76%
    23:00 +1°C° 0.3 mm 3 m/S 634 mmHg 76%

    übermorgen, 25 März, Montag

    Zeit Temperatur Niederschläge Wind Luftdruck Luftfeuchtigkeit
    00:00 +1°C° 0.3 mm 3 m/S 634 mmHg 76%
    01:00 0°C° 0.3 mm 3 m/S 634 mmHg 76%
    02:00 0°C° 0.3 mm 3 m/S 634 mmHg 76%
    03:00 0°C° 0.3 mm 3 m/S 634 mmHg 76%
    04:00 0°C° 0.1 mm 3 m/S 634 mmHg 76%
    05:00 0°C° 0.1 mm 3 m/S 634 mmHg 77%
    06:00 -1°C° 0.1 mm 3 m/S 633 mmHg 77%
    07:00 +1°C° 0 mm 3 m/S 634 mmHg 75%
    08:00 +2°C° 0 mm 3 m/S 634 mmHg 72%
    09:00 +3°C° 0 mm 3 m/S 634 mmHg 70%
    10:00 +4°C° 0.1 mm 3 m/S 634 mmHg 69%
    11:00 +5°C° 0.1 mm 3 m/S 633 mmHg 67%
    12:00 +6°C° 0.1 mm 4 m/S 633 mmHg 66%
    13:00 +6°C° 0.1 mm 4 m/S 633 mmHg 65%
    14:00 +6°C° 0.1 mm 4 m/S 633 mmHg 65%
    15:00 +6°C° 0.1 mm 4 m/S 632 mmHg 64%
    16:00 +5°C° 0.2 mm 3 m/S 633 mmHg 66%
    17:00 +5°C° 0.2 mm 3 m/S 633 mmHg 68%
    18:00 +4°C° 0.2 mm 3 m/S 633 mmHg 69%
    19:00 +3°C° 0.2 mm 3 m/S 633 mmHg 71%
    20:00 +3°C° 0.2 mm 3 m/S 634 mmHg 72%
    21:00 +2°C° 0.2 mm 3 m/S 634 mmHg 73%
    22:00 +2°C° 0.2 mm 3 m/S 634 mmHg 74%
    23:00 +3°C° 0.2 mm 2 m/S 634 mmHg 74%

    26 März, Dienstag

    Zeit Temperatur Niederschläge Wind Luftdruck Luftfeuchtigkeit
    00:00 +3°C° 0.2 mm 2 m/S 635 mmHg 75%
    01:00 +3°C° 0.1 mm 2 m/S 634 mmHg 75%
    02:00 +2°C° 0.1 mm 2 m/S 634 mmHg 75%
    03:00 +2°C° 0.1 mm 2 m/S 634 mmHg 76%
    04:00 +2°C° 0.1 mm 2 m/S 635 mmHg 76%
    05:00 +1°C° 0.1 mm 2 m/S 635 mmHg 76%
    06:00 +1°C° 0.1 mm 2 m/S 635 mmHg 77%
    07:00 +2°C° 0.1 mm 2 m/S 635 mmHg 73%
    08:00 +5°C° 0.1 mm 1 m/S 636 mmHg 70%
    09:00 +6°C° 0.1 mm 1 m/S 636 mmHg 67%
    10:00 +7°C° 0 mm 1 m/S 636 mmHg 65%
    11:00 +8°C° 0 mm 1 m/S 636 mmHg 64%
    12:00 +8°C° 0 mm 1 m/S 636 mmHg 63%
    13:00 +8°C° 0.1 mm 2 m/S 635 mmHg 62%
    14:00 +8°C° 0.1 mm 2 m/S 635 mmHg 61%
    15:00 +8°C° 0.1 mm 2 m/S 634 mmHg 60%
    16:00 +7°C° 0.1 mm 2 m/S 634 mmHg 63%
    17:00 +7°C° 0.1 mm 3 m/S 634 mmHg 65%
    18:00 +5°C° 0.1 mm 3 m/S 634 mmHg 68%
    19:00 +5°C° 0.1 mm 3 m/S 634 mmHg 70%
    20:00 +4°C° 0.1 mm 3 m/S 635 mmHg 72%
    21:00 +3°C° 0.1 mm 3 m/S 635 mmHg 74%
    22:00 +3°C° 0.1 mm 3 m/S 635 mmHg 74%
    23:00 +4°C° 0.1 mm 2 m/S 635 mmHg 74%

    27 März, Mittwoch

    Zeit Temperatur Niederschläge Wind Luftdruck Luftfeuchtigkeit
    00:00 +3°C° 0.1 mm 2 m/S 635 mmHg 75%
    01:00 +3°C° 0.1 mm 2 m/S 635 mmHg 75%
    02:00 +4°C° 0.1 mm 1 m/S 635 mmHg 76%
    03:00 +2°C° 0.1 mm 0 m/S 635 mmHg 76%
    04:00 +3°C° 0 mm 1 m/S 635 mmHg 76%
    05:00 +3°C° 0 mm 1 m/S 635 mmHg 76%
    06:00 +2°C° 0 mm 1 m/S 635 mmHg 76%
    07:00 +3°C° 0.1 mm 1 m/S 635 mmHg 72%
    08:00 +4°C° 0.1 mm 2 m/S 635 mmHg 69%
    09:00 +5°C° 0.1 mm 2 m/S 636 mmHg 65%
    10:00 +4°C° 0.1 mm 3 m/S 636 mmHg 64%
    11:00 +5°C° 0.1 mm 3 m/S 636 mmHg 62%
    12:00 +7°C° 0.1 mm 3 m/S 636 mmHg 61%
    13:00 +7°C° 0.1 mm 3 m/S 636 mmHg 60%
    14:00 +7°C° 0.1 mm 3 m/S 636 mmHg 60%
    15:00 +8°C° 0.1 mm 3 m/S 636 mmHg 59%
    16:00 +7°C° 0.1 mm 2 m/S 636 mmHg 61%
    17:00 +6°C° 0.1 mm 2 m/S 636 mmHg 63%
    18:00 +6°C° 0.1 mm 2 m/S 636 mmHg 65%
    19:00 +5°C° 0.1 mm 2 m/S 637 mmHg 65%
    20:00 +5°C° 0.1 mm 2 m/S 637 mmHg 66%
    21:00 +4°C° 0.1 mm 2 m/S 637 mmHg 67%
    22:00 +4°C° 0.1 mm 2 m/S 637 mmHg 67%
    23:00 +3°C° 0.1 mm 2 m/S 637 mmHg 67%

    28 März, Donnerstag

    Zeit Temperatur Niederschläge Wind Luftdruck Luftfeuchtigkeit
    00:00 +3°C° 0.1 mm 2 m/S 637 mmHg 67%
    01:00 +4°C° 0.2 mm 1 m/S 637 mmHg 69%
    02:00 +4°C° 0.2 mm 1 m/S 637 mmHg 70%
    03:00 +4°C° 0.2 mm 1 m/S 637 mmHg 72%
    04:00 +3°C° 0.3 mm 1 m/S 637 mmHg 73%
    05:00 +3°C° 0.3 mm 1 m/S 637 mmHg 75%
    06:00 +3°C° 0.3 mm 1 m/S 638 mmHg 76%
    07:00 +4°C° 0.3 mm 1 m/S 638 mmHg 74%
    08:00 +4°C° 0.3 mm 2 m/S 638 mmHg 72%
    09:00 +4°C° 0.3 mm 2 m/S 638 mmHg 69%
    10:00 +5°C° 0.3 mm 2 m/S 638 mmHg 67%
    11:00 +6°C° 0.3 mm 2 m/S 638 mmHg 65%
    12:00 +6°C° 0.3 mm 2 m/S 638 mmHg 63%
    13:00 +6°C° 0.3 mm 2 m/S 638 mmHg 63%
    14:00 +6°C° 0.3 mm 2 m/S 637 mmHg 63%
    15:00 +6°C° 0.3 mm 2 m/S 637 mmHg 64%
    16:00 +6°C° 0.2 mm 2 m/S 637 mmHg 65%
    17:00 +5°C° 0.2 mm 2 m/S 637 mmHg 66%
    18:00 +6°C° 0.2 mm 1 m/S 637 mmHg 68%
    19:00 +5°C° 0.3 mm 1 m/S 637 mmHg 69%
    20:00 +5°C° 0.3 mm 1 m/S 637 mmHg 71%
    21:00 +5°C° 0.3 mm 1 m/S 638 mmHg 73%
    22:00 +4°C° 0.3 mm 1 m/S 637 mmHg 73%
    23:00 +4°C° 0.3 mm 1 m/S 637 mmHg 74%
    Mehr zeigen